Regional Weather Roundup
Issued by NWS Mobile, AL

Home | Current Version | Previous Version | Text Only | Print | Product List | Glossary On
Versions: 1 2 3 4 5 6 7 8 9 10 11 12 13 14 15 16 17 18 19 20 21 22 23 24 25 26 27 28 29 30 31 32 33 34 35 36 37 38 39 40 41 42 43 44 45 46 47 48 49 50
000
ASUS44 KMOB 020410
RWRMOB
REGIONAL WEATHER ROUNDUP
NATIONAL WEATHER SERVICE MOBILE AL
1100 PM CDT FRI AUG 01 2014

NOTE: "FAIR" INDICATES FEW OR NO CLOUDS BELOW 12,000 FEET WITH NO
      SIGNIFICANT WEATHER AND/OR OBSTRUCTIONS TO VISIBILITY.

  * THESE STATIONS ARE PART OF THE UNIVERSITY OF SOUTH ALABAMA
    MESONET AND ARE NOT UNDER NWS OR FAA QUALITY CONTROL.

ALZ061>064-020500-
COASTAL ALABAMA

CITY           SKY/WX    TMP DP  RH WIND       PRES   REMARKS
MOBILE REG APT CLOUDY    74  71  91 NW3       30.01R
BROOKLEY FIELD CLOUDY    75  71  87 NW3       30.01R
USA CAMPUS*      N/A     73  70  88 CALM      30.00R
DOG RIVER*       N/A     75  73  94 CALM      30.00R


CITY           SKY/WX    TMP DP  RH WIND       PRES   REMARKS
MOUNT VERNON*    N/A     72  70  94 CALM      30.00R
SARALAND*      NOT AVBL
BAY MINETTE*   NOT AVBL
LOXLEY*          N/A     72  72 100 CALM      30.00R
ROBERTSDALE*     N/A    N/A N/A N/A CALM      30.00R
FAIRHOPE*        N/A     73  72  94 CALM      29.99R
ELBERTA*         N/A     75  63  64 CALM      29.99R
FOLEY*         NOT AVBL
GRAND BAY*       N/A     73  72  94 CALM      29.98S
DAUPHIN ISLND* NOT AVBL
BON SCOUR NWR* NOT AVBL
GULF SHORES    PTCLDY    73  70  91 CALM      29.99S

$$

ALZ051>060-020500-
INTERIOR SOUTHWEST AND SOUTH CENTRAL ALABAMA

CITY           SKY/WX    TMP DP  RH WIND       PRES   REMARKS
GREENVILLE     CLOUDY    74  70  87 CALM      30.01S
EVERGREEN      CLOUDY    77  71  82 CALM      30.01R
CASTLEBERRY*   NOT AVBL
ATMORE*          N/A     75  73  94 CALM      30.02R
DIXIE*         NOT AVBL
ANDALUSIA/OPP  CLEAR     77  72  84 CALM      30.01R
ANDALUSIA*     NOT AVBL
FLORALA APT    CLEAR     76  72  87 CALM      30.02S
FLORALA*         N/A     75  70  83 CALM      29.98R

$$

FLZ001>006-020500-
WESTERN FLORIDA PANHANDLE

CITY           SKY/WX    TMP DP  RH WIND       PRES   REMARKS
PENSACOLA      MOCLDY    77  69  76 NW3       29.99R
NAS PENSACOLA  MOCLDY    76  72  87 NW3       29.99R
MILTON         CLOUDY    76  70  82 NW3       30.00R
WHTNG S FIELD  CLOUDY    77  70  79 N6        30.00R


CITY           SKY/WX    TMP DP  RH WIND       PRES   REMARKS
WALNUT HILL*   NOT AVBL
JAY*           NOT AVBL
DUKE FIELD     MOCLDY    73  70  92 NE1       30.00R
CRESTVIEW      PTCLDY    73  70  90 CALM      30.01R
VALPARAISO     MOCLDY    77  71  82 NE3       29.99R
DESTIN         PTCLDY    77  72  84 CALM      29.98S

$$

MSZ076-079-020500-
INTERIOR SOUTHEAST MISSISSIPPI

CITY           SKY/WX    TMP DP  RH WIND       PRES   REMARKS
LEAKESVILLE*   NOT AVBL
AGRICOLA*      NOT AVBL

$$

MARINE OBSERVATIONS

STATION/POSITION TIME  TEMP    WIND        PRES    WAVE
                       AIR SEA DIR/SP/G            HT/PER
                 (UTC) (F)     (DEG/KT/KT) (MB)    (FT/S)
PASCAGOULA       0300           20/  4/  5 1015.4R
PETIT BOIS ISLND 0300                      1015.8
GRAND BAY        0300   78     340/  3     1016.0S
KATRINA CUT      0300   81     360/  6     1015.9R
CEDAR POINT      0300   78     340/  4     1015.2S
E DAUPHIN ISLAND 0257   81     280/  1/  1 1015.6R
MIDDLE BAY LIGHT 0300   81     340/  5     1014.9R
USCG MOBILE BAY  0300                      1014.6R
STATE DOCKS      0300                      1015.4R
MEAHER PARK      0300   78      10/  2     1015.6R
WEEKS BAY        0300   74                   N/A
FORT MORGAN      0300                      1015.2R
12 S ORANGE BCH  0400   82 84  350/  6/  6 1015.8R   0
PENSACOLA BAY    0300                      1015.5R
64 S DAUPHIN ISL 0304   83 85  110/  4/  6 1015.9R
67 S FORT MORGAN 0300   82                 1015.2S

$$

SELECTED LOCATIONS ACROSS THE REGION

CITY           SKY/WX    TMP DP  RH WIND       PRES   REMARKS
NEW ORLEANS    PTCLDY    80  70  71 SE7       29.98R
GULFPORT       CLEAR     77  70  79 CALM      29.99R
PASCAGOULA AP  PTCLDY    70  69  97 CALM      30.00R
PASCAGOULA*      N/A     73  72  94 CALM      29.99S
HATTIESBURG    CLOUDY    74  71  91 CALM      30.01R
LAUREL         MOCLDY    72  68  88 CALM      30.02R
MERIDIAN       CLOUDY    73  69  87 CALM      30.01S
JACKSON        CLOUDY    73  71  93 CALM      30.01R
MONTGOMERY     MOCLDY    76  71  85 E3        30.02R
TROY           PTCLDY    71  69  93 CALM      30.03R FOG
KINSTON*       NOT AVBL
GENEVA*          N/A     75  70  83 CALM      30.02R
ASHFORD*       NOT AVBL
DOTHAN         CLEAR     74  71  91 NE5       30.05R
PANAMA CITY    CLEAR     74  69  85 CALM      29.98R

$$



USA.gov is the U.S. government's official web portal to all federal, state and local government web resources and services.